Погода в Уэймуте

Великобритания     50°35′24″N   2°28′50″W
темп.,
°C
ветер,
м/с
пор.,
м/с
влажн.,
%
обл.,
%
осадки,
мм/ч
давл.,
гПа
погр.,
м
7 мая, пт
пт701:00+7ссз69700 0.0 1014407
04:00+7ссз68720 0.0 1015401
07:00+7сз44690 0.0 1017302
10:00+8зюз34680 0.0 1018358
13:00+9юз45625 0.0 1019545
16:00+9ююз5560100 0.0 1018545
19:00+9ююв5559100 0.0 1016552
22:00+10юв786999 0.0 1015458
8 мая, сб
сб801:00+9юв101181100 0.3 1012584
04:00+10ююв121695100 1.5 1007589
07:00+11ю142096100 7.2 1003564
10:00+12ююз142188100 0.9 1003564
13:00+12ююз132089100 0.9 1003543
16:00+12юз917882 0.0 1002367
19:00+12юз917890 0.0 1001392
22:00+11ю6119332 0.0 1000214
9 мая, вс
вс901:00+12ююз8158875 0.0 999322
04:00+12ю1017872 0.0 996335
07:00+12ю111884100 0.0 995399
10:00+11ю579137 0.1 996162
13:00+11ююз71285100 0.1 997313
16:00+12ююз71382100 0.1 997331
19:00+11ююз81381100 0.1 995315
22:00+11ююз8138459 0.0 996381
10 мая, пн
пн1001:00+11ююз11158732 0.2 996623
04:00+11ююз1215895 0.3 997680
07:00+11ююз1316866 0.3 999831
10:00+10юз12158515 0.3 1001838
13:00+11юз1013845 0.4 1003733
16:00+11ююз611815 0.0 1004489
19:00+11ююз915790 0.4 1003655
22:00+11ю678071 0.2 1005190
11 мая, вт
вт1101:00+11ююз69816 0.4 1005371
04:00+10ююз69854 0.1 1005444
07:00+10ю688766 0.1 1006494
10:00+10ю57870 0.1 1007395
13:00+10ю56850 0.1 1008354
16:00+11ю56840 0.1 1008426
19:00+11ююз68855 0.1 1009499
22:00+11ююз68885 0.0 1009341